Location: Alsip
(41.6689°N, 87.7387°W)
Time: 14:24:41
(UTC+00:00)

Cosmos 1697 Rocket - Pass Details

Date: 14 July 2020
Orbit: 834 x 842 km, 71.0° (Epoch: 04 August)

Event Time Altitude Azimuth Distance (km) Brightness Sun altitude
Rises 07:13:21 0° 342° (NNW) 3,396 6.6 -24.3°
Reaches altitude 10° 07:15:59 10° 350° (N) 2,456 5.9 -24.1°
Maximum altitude 07:21:13 38° 58° (ENE) 1,250 3.9 -23.8°
Drops below altitude 10° 07:26:25 10° 126° (SE) 2,439 5.0 -23.4°
Enters shadow 07:27:06 - 129° (SE) 2,680 5.1 -23.4°
